[[{"header":{"parameterUnit":"m.s-1","parameterCategory":1,"la1":30.2992,"la2":30.254,"lo1":-89.0895,"lo2":-89.0443,"dy":0.0025,"dx":0.0025,"nx":19,"ny":19,"refTime":"2026-04-24T21:00:00:Z","depth":0,"parameterNumber":2,"parameterNumberName":"U-component_of_WINDS"},"data":[0,0,0,-3.41,-3.4102,-3.419,-3.4191,-3.4308,-3.4309,0,0,0,0,0,0,0,0,0,0,0,-3.4076,-3.4077,-3.41,-3.4102,-3.419,-3.4191,-3.4307,-3.4309,0,0,0,0,0,0,0,0,0,0,0,-3.4076,-3.4077,-3.4078,-3.4102,-3.419,-3.4191,-3.4307,-3.4239,0,0,0,0,0,0,0,0,0,0,-3.4152,-3.4133,-3.4077,-3.4078,-3.4103,-3.419,-3.4191,-3.4236,-3.4243,-3.4269,0,-3.4294,0,-3.4303,-3.4317,-3.4317,0,0,0,-3.41,-3.4127,-3.4148,-3.4078,-3.4104,-3.419,-3.415,-3.424,-3.4248,-3.4279,-3.4295,-3.4299,-3.4305,-3.4318,-3.4318,-3.4477,-3.4478,0,0,-3.4095,-3.4093,-3.4143,-3.4154,-3.4141,-3.4147,-3.4153,-3.4245,-3.4262,-3.4296,-3.4302,-3.4307,-3.4318,-3.4319,-3.4476,-3.4477,0,0,0,-3.4082,-3.409,-3.4109,-3.4149,-3.4165,-3.415,-3.4156,-3.4258,-3.4264,-3.4303,-3.4308,-3.4319,-3.4321,-3.4475,-3.4477,-3.4516,0,0,0,-3.4079,-3.4083,-3.4107,-3.4107,-3.4164,-3.4213,-3.4167,-3.4258,-3.4268,-3.4308,-3.4319,-3.4322,-3.4475,-3.4476,-3.4513,-3.4534,0,0,0,-3.4069,-3.4081,-3.4095,-3.4107,-3.4145,-3.4211,-3.4223,-3.426,-3.4272,-3.4317,-3.4322,-3.4474,-3.4476,-3.451,-3.4529,-3.4574,0,0,0,-3.4058,-3.4129,-3.4096,-3.4177,-3.4144,-3.4236,-3.4222,-3.429,-3.4335,-3.432,-3.4475,-3.4477,-3.4509,-3.4526,-3.4571,-3.4609,-3.4626,0,0,-3.4146,-3.4139,-3.4187,-3.416,-3.4257,-3.4222,-3.4325,-3.4366,-3.4372,-3.4442,-3.4446,-3.4514,-3.4529,-3.4573,-3.4723,-3.4736,0,0,0,-3.4215,-3.4248,-3.4275,-3.4317,-3.4352,-3.4382,-3.4409,-3.4425,-3.4484,-3.4408,-3.4543,-3.4552,-3.4578,-3.4597,-3.4608,-3.4629,-3.4486,-3.4486,-3.4485,-3.4334,-3.4339,-3.4418,-3.4434,-3.4475,-3.4503,-3.4536,-3.4562,-3.4554,-3.4586,-3.4606,-3.4697,-3.4718,-3.4726,-3.4749,-3.4629,-3.4629,-3.4629,-3.4629,-3.4462,-3.451,-3.45,-3.4572,-3.4577,-3.4637,-3.4667,-3.466,-3.4717,-3.4682,-3.4705,-3.4664,-3.4741,-3.476,-3.4632,-3.4632,-3.4631,-3.4631,-3.4631,-3.4539,-3.4562,-3.4581,-3.4643,-3.4691,-3.4705,-3.476,-3.4763,-3.4766,-3.4789,-3.4809,-3.4809,-3.4806,-3.4799,-3.48,-3.48,-3.48,-3.48,-3.4801,-3.4609,-3.463,-3.4676,-3.472,-3.4748,-3.4785,-3.4815,-3.4842,-3.4873,-3.487,-3.487,-3.4858,-3.4749,-3.4719,-3.4805,-3.4805,-3.4804,-3.4804,-3.4803,-3.4732,-3.4705,-3.4776,-3.4805,-3.4856,-3.4903,-3.4907,-3.4963,-3.4986,-3.5013,-3.4998,-3.4917,-3.4909,-3.49,-3.4876,-3.4997,-3.4997,-3.4997,-3.4997,-3.4794,-3.4792,-3.4866,-3.491,-3.4955,-3.4966,-3.5046,-3.5071,-3.5092,-3.5106,-3.509,-3.5059,-3.505,-3.5048,-3.5036,-3.5013,-3.5167,-3.5167,-3.5167,-3.4869,-3.4871,-3.4938,-3.496,-3.5001,-3.5036,-3.5111,-3.5162,-3.5181,-3.5174,-3.5117,-3.511,-3.506,-3.5044,-3.5032,-3.5013,-3.4971,0,0]},{"header":{"parameterUnit":"m.s-1","parameterCategory":1,"la1":30.2992,"la2":30.254,"lo1":-89.0895,"lo2":-89.0443,"dy":0.0025,"dx":0.0025,"nx":19,"ny":19,"refTime":"2026-04-24T21:00:00:Z","depth":0,"parameterNumber":3,"parameterNumberName":"V-component_of_WINDS"},"data":[0,0,0,4.7419,4.742,4.7453,4.7453,4.75,4.75,0,0,0,0,0,0,0,0,0,0,0,4.7413,4.7413,4.7419,4.742,4.7453,4.7453,4.75,4.75,0,0,0,0,0,0,0,0,0,0,0,4.7412,4.7413,4.7413,4.742,4.7453,4.7453,4.75,4.7473,0,0,0,0,0,0,0,0,0,0,4.744,4.7437,4.7413,4.7414,4.742,4.7453,4.7453,4.7472,4.7475,4.7487,0,4.7499,0,4.7501,4.7504,4.7504,0,0,0,4.7417,4.7435,4.7441,4.7414,4.7421,4.7453,4.7437,4.7473,4.7477,4.7491,4.75,4.7502,4.7502,4.7504,4.7504,4.7588,4.7589,0,0,4.7415,4.742,4.7439,4.7443,4.7439,4.7436,4.7438,4.7475,4.7485,4.75,4.7503,4.7502,4.7504,4.7505,4.7588,4.7588,0,0,0,4.7412,4.7419,4.7424,4.7442,4.7447,4.7437,4.744,4.7483,4.7485,4.7503,4.7503,4.7505,4.7505,4.7587,4.7588,4.762,0,0,0,4.7411,4.7417,4.7423,4.7426,4.7447,4.7466,4.7447,4.7482,4.7486,4.7503,4.7505,4.7506,4.7587,4.7588,4.7617,4.7633,0,0,0,4.7409,4.7417,4.7423,4.7427,4.7441,4.7465,4.7469,4.7483,4.7486,4.7504,4.7506,4.7586,4.7587,4.7616,4.763,4.7658,0,0,0,4.7409,4.7449,4.7423,4.7468,4.7441,4.7485,4.7468,4.75,4.7519,4.7505,4.7587,4.7588,4.7615,4.7628,4.7656,4.7682,4.7694,0,0,4.7462,4.7455,4.7481,4.746,4.7509,4.7479,4.7533,4.7545,4.7542,4.7573,4.7575,4.7618,4.763,4.7657,4.7755,4.7764,0,0,0,4.75,4.7518,4.7531,4.755,4.7561,4.7573,4.7576,4.7581,4.7608,4.7559,4.7635,4.7642,4.7658,4.767,4.7678,4.7692,4.7594,4.7594,4.7593,4.758,4.7576,4.7619,4.7619,4.7638,4.7643,4.7658,4.7665,4.7653,4.7671,4.768,4.774,4.7755,4.776,4.7775,4.7693,4.7693,4.7693,4.7693,4.7658,4.7685,4.7671,4.7708,4.7703,4.7733,4.7739,4.773,4.7758,4.7732,4.7746,4.7719,4.7771,4.7783,4.7696,4.7695,4.7695,4.7695,4.7695,4.7711,4.7723,4.773,4.7759,4.7781,4.7779,4.7808,4.7801,4.7795,4.7809,4.7818,4.7818,4.7817,4.7814,4.7814,4.7814,4.7814,4.7814,4.7815,4.7764,4.777,4.7795,4.7813,4.7825,4.7841,4.7847,4.7859,4.787,4.7864,4.7864,4.7851,4.7777,4.7758,4.7818,4.7817,4.7817,4.7817,4.7816,4.7845,4.7826,4.7865,4.7878,4.7899,4.7923,4.7915,4.794,4.7948,4.7963,4.7947,4.7893,4.7886,4.788,4.7865,4.7948,4.7948,4.7948,4.7948,4.789,4.7886,4.7926,4.7947,4.7967,4.7965,4.8009,4.8015,4.8017,4.8022,4.8009,4.7989,4.7983,4.7979,4.797,4.7956,4.8061,4.8061,4.8061,4.794,4.7939,4.7978,4.7982,4.7998,4.8012,4.8054,4.8078,4.8077,4.8066,4.8027,4.8022,4.7988,4.7978,4.7965,4.7952,4.7926,0,0]}]]